20040720,000001,613457,33.454333,-119.326500,NaN,16.892,33.491,43.061,  NaN,0.0, NaN, NaN, NaN, NaN,24.382,353.620,17.20,1012.94,93.00,NaN,23.0,NaN,12.7,NaN,282.0,NaN,8.4,NaN,NaN, NaN,NaN,246.0,NaN,NaN,NaN,2,8.5,086399,   NaN,251.8,     NaN,      NaN,NaN,10.1,NaN,16.896, NaN,NaN,NaN, NaN, NaN
20040720,000031,613487,33.453833,-119.327833,NaN,16.877,33.491,43.047,  NaN,0.0, NaN, NaN, NaN, NaN,24.385,353.315,17.20,1012.88,92.70,NaN,29.0,NaN,14.5,NaN,285.3,NaN,10.7,NaN,NaN, NaN,NaN,245.0,NaN,NaN,NaN,2,8.5,000029,   NaN,250.8,     NaN,      NaN,NaN,10.2,NaN,16.881, NaN,NaN,NaN, NaN, NaN
20040720,000101,613517,33.453333,-119.329167,NaN,16.869,33.490,43.037,  NaN,0.0, NaN, NaN, NaN, NaN,24.386,353.201,17.20,1012.99,92.60,NaN,30.0,NaN,16.4,NaN,289.7,NaN,12.2,NaN,NaN, NaN,NaN,244.0,NaN,NaN,NaN,2,8.3,000059,   NaN,252.3,     NaN,      NaN,NaN,9.8,NaN,16.873, NaN,NaN,NaN, NaN, NaN
20040720,000131,613547,33.452833,-119.330333,NaN,16.885,33.490,43.053,  NaN,0.0, NaN, NaN, NaN, NaN,24.383,353.567,17.20,1012.77,92.60,NaN,31.0,NaN,14.6,NaN,291.2,NaN,10.8,NaN,NaN, NaN,NaN,244.0,NaN,NaN,NaN,2,8.2,000089,   NaN,251.0,     NaN,      NaN,NaN,9.3,NaN,16.889, NaN,NaN,NaN, NaN, NaN
20040720,000201,613577,33.452333,-119.331667,NaN,16.857,33.492,43.028,  NaN,0.0, NaN, NaN, NaN, NaN,24.390,352.844,17.20,1012.89,92.90,NaN,34.0,NaN,13.6,NaN,297.9,NaN,10.3,NaN,NaN, NaN,NaN,244.0,NaN,NaN,NaN,2,8.6,000119,   NaN,249.8,     NaN,      NaN,NaN,10.3,NaN,16.862, NaN,NaN,NaN, NaN, NaN
20040720,000231,613607,33.451833,-119.332833,NaN,16.836,33.488,43.003,  NaN,0.0, NaN, NaN, NaN, NaN,24.393,352.623,17.30,1012.91,93.00,NaN,28.0,NaN,14.2,NaN,290.2,NaN,9.6,NaN,NaN, NaN,NaN,244.0,NaN,NaN,NaN,2,8.0,000149,   NaN,250.5,     NaN,      NaN,NaN,9.6,NaN,16.840, NaN,NaN,NaN, NaN, NaN
20040720,000301,613637,33.451333,-119.334000,NaN,16.781,33.483,42.945,  NaN,0.0, NaN, NaN, NaN, NaN,24.402,351.765,17.20,1012.99,92.60,NaN,31.0,NaN,14.6,NaN,294.7,NaN,12.4,NaN,NaN, NaN,NaN,245.0,NaN,NaN,NaN,2,8.3,000179,   NaN,250.9,     NaN,      NaN,NaN,9.6,NaN,16.785, NaN,NaN,NaN, NaN, NaN
20040720,000331,613667,33.450833,-119.335333,NaN,16.759,33.478,42.919,  NaN,0.0, NaN, NaN, NaN, NaN,24.403,351.612,17.20,1013.01,92.90,NaN,24.0,NaN,14.0,NaN,285.6,NaN,10.9,NaN,NaN, NaN,NaN,245.0,NaN,NaN,NaN,2,8.5,000209,   NaN,250.8,     NaN,      NaN,NaN,9.7,NaN,16.763, NaN,NaN,NaN, NaN, NaN
20040720,000401,613697,33.450333,-119.336500,NaN,16.796,33.480,42.955,  NaN,0.0, NaN, NaN, NaN, NaN,24.395,352.354,17.20,1012.93,92.70,NaN,26.0,NaN,14.4,NaN,285.4,NaN,9.7,NaN,NaN, NaN,NaN,245.0,NaN,NaN,NaN,2,8.0,000239,   NaN,250.1,     NaN,      NaN,NaN,9.2,NaN,16.800, NaN,NaN,NaN, NaN, NaN
20040720,000431,613727,33.449833,-119.337833,NaN,16.826,33.481,42.986,  NaN,0.0, NaN, NaN, NaN, NaN,24.389,352.935,17.20,1012.93,93.00,NaN,26.0,NaN,13.0,NaN,291.5,NaN,10.7,NaN,NaN, NaN,NaN,244.0,NaN,NaN,NaN,2,8.5,000269,   NaN,248.3,     NaN,      NaN,NaN,9.5,NaN,16.831, NaN,NaN,NaN, NaN, NaN
20040720,000501,613757,33.449333,-119.339000,NaN,16.837,33.478,42.994,  NaN,0.0, NaN, NaN, NaN, NaN,24.385,353.354,17.20,1012.91,92.90,NaN,27.0,NaN,15.3,NaN,282.6,NaN,11.2,NaN,NaN, NaN,NaN,244.0,NaN,NaN,NaN,2,8.4,000299,   NaN,249.5,     NaN,      NaN,NaN,9.9,NaN,16.841, NaN,NaN,NaN, NaN, NaN
20040720,000531,613787,33.448833,-119.340333,NaN,16.923,33.480,43.077,  NaN,0.0, NaN, NaN, NaN, NaN,24.366,355.176,17.20,1012.82,93.00,NaN,29.0,NaN,14.7,NaN,285.2,NaN,10.1,NaN,NaN, NaN,NaN,241.0,NaN,NaN,NaN,2,8.1,000329,   NaN,250.2,     NaN,      NaN,NaN,9.6,NaN,16.927, NaN,NaN,NaN, NaN, NaN
20040720,000601,613817,33.448333,-119.341500,NaN,16.979,33.487,43.140,  NaN,0.0, NaN, NaN, NaN, NaN,24.358,355.878,17.20,1012.82,93.10,NaN,27.0,NaN,14.2,NaN,288.2,NaN,10.3,NaN,NaN, NaN,NaN,244.0,NaN,NaN,NaN,2,8.1,000359,   NaN,250.8,     NaN,      NaN,NaN,9.5,NaN,16.983, NaN,NaN,NaN, NaN, NaN
20040720,000631,613847,33.447833,-119.342833,NaN,16.951,33.486,43.112,  NaN,0.0, NaN, NaN, NaN, NaN,24.364,355.317,17.20,1012.75,93.00,NaN,29.0,NaN,14.9,NaN,291.9,NaN,12.2,NaN,NaN, NaN,NaN,244.0,NaN,NaN,NaN,2,8.7,000389,   NaN,250.0,     NaN,      NaN,NaN,9.5,NaN,16.955, NaN,NaN,NaN, NaN, NaN
20040720,000701,613877,33.447333,-119.344000,NaN,16.925,33.485,43.085,  NaN,0.0, NaN, NaN, NaN, NaN,24.369,354.858,17.20,1012.87,93.10,NaN,30.0,NaN,13.4,NaN,286.5,NaN,10.3,NaN,NaN, NaN,NaN,244.0,NaN,NaN,NaN,2,8.4,000419,   NaN,249.9,     NaN,      NaN,NaN,9.5,NaN,16.929, NaN,NaN,NaN, NaN, NaN
20040720,000731,613907,33.446833,-119.345333,NaN,16.939,33.487,43.100,  NaN,0.0, NaN, NaN, NaN, NaN,24.367,355.030,17.20,1012.79,93.00,NaN,27.0,NaN,15.0,NaN,291.2,NaN,11.4,NaN,NaN, NaN,NaN,244.0,NaN,NaN,NaN,2,8.7,000449,   NaN,250.2,     NaN,      NaN,NaN,10.2,NaN,16.943, NaN,NaN,NaN, NaN, NaN
20040720,000801,613937,33.446333,-119.346500,NaN,16.915,33.482,43.073,  NaN,0.0, NaN, NaN, NaN, NaN,24.369,354.835,17.20,1012.88,93.00,NaN,28.0,NaN,15.0,NaN,286.3,NaN,11.7,NaN,NaN, NaN,NaN,244.0,NaN,NaN,NaN,2,8.5,000479,   NaN,250.9,     NaN,      NaN,NaN,10.0,NaN,16.919, NaN,NaN,NaN, NaN, NaN
20040720,000831,613967,33.445833,-119.347833,NaN,16.974,33.484,43.132,  NaN,0.0, NaN, NaN, NaN, NaN,24.357,355.978,17.20,1012.99,92.90,NaN,32.0,NaN,15.0,NaN,293.8,NaN,12.2,NaN,NaN, NaN,NaN,246.0,NaN,NaN,NaN,2,8.5,000509,   NaN,250.8,     NaN,      NaN,NaN,9.6,NaN,16.978, NaN,NaN,NaN, NaN, NaN
20040720,000901,613997,33.445333,-119.349167,NaN,16.976,33.484,43.133,  NaN,0.0, NaN, NaN, NaN, NaN,24.357,356.042,17.20,1012.85,93.00,NaN,31.0,NaN,14.0,NaN,296.4,NaN,10.3,NaN,NaN, NaN,NaN,245.0,NaN,NaN,NaN,2,8.5,000539,   NaN,250.0,     NaN,      NaN,NaN,10.0,NaN,16.980, NaN,NaN,NaN, NaN, NaN
20040720,000931,614027,33.444833,-119.350333,NaN,16.959,33.484,43.117,  NaN,0.0, NaN, NaN, NaN, NaN,24.360,355.697,17.20,1012.97,93.00,NaN,31.0,NaN,13.5,NaN,291.7,NaN,10.4,NaN,NaN, NaN,NaN,243.0,NaN,NaN,NaN,2,8.5,000569,   NaN,248.8,     NaN,      NaN,NaN,9.3,NaN,16.963, NaN,NaN,NaN, NaN, NaN
20040720,001001,614057,33.444333,-119.351667,NaN,16.945,33.483,43.103,  NaN,0.0, NaN, NaN, NaN, NaN,24.363,355.438,17.30,1012.99,93.20,NaN,30.0,NaN,13.3,NaN,290.2,NaN,10.1,NaN,NaN, NaN,NaN,241.0,NaN,NaN,NaN,2,8.3,000599,   NaN,251.1,     NaN,      NaN,NaN,9.2,NaN,16.949, NaN,NaN,NaN, NaN, NaN
20040720,001031,614087,33.443833,-119.352833,NaN,16.952,33.481,43.106,  NaN,0.0, NaN, NaN, NaN, NaN,24.360,355.736,17.30,1012.91,93.00,NaN,30.0,NaN,14.1,NaN,298.2,NaN,10.8,NaN,NaN, NaN,NaN,243.0,NaN,NaN,NaN,2,8.4,000629,   NaN,251.3,     NaN,      NaN,NaN,9.4,NaN,16.956, NaN,NaN,NaN, NaN, NaN
20040720,001101,614117,33.443167,-119.354167,NaN,16.962,33.479,43.114,  NaN,0.0, NaN, NaN, NaN, NaN,24.356,356.070,17.20,1012.94,93.10,NaN,28.0,NaN,13.4,NaN,287.9,NaN,9.2,NaN,NaN, NaN,NaN,243.0,NaN,NaN,NaN,2,8.4,000659,   NaN,249.9,     NaN,      NaN,NaN,9.7,NaN,16.966, NaN,NaN,NaN, NaN, NaN
20040720,001131,614147,33.442667,-119.355333,NaN,17.023,33.480,43.174,  NaN,0.0, NaN, NaN, NaN, NaN,24.343,357.385,17.30,1012.94,93.00,NaN,25.0,NaN,14.8,NaN,294.2,NaN,10.5,NaN,NaN, NaN,NaN,244.0,NaN,NaN,NaN,2,8.6,000689,   NaN,249.9,     NaN,      NaN,NaN,10.2,NaN,17.027, NaN,NaN,NaN, NaN, NaN
20040720,001201,614177,33.442167,-119.356667,NaN,17.118,33.486,43.272,  NaN,0.0, NaN, NaN, NaN, NaN,24.325,359.075,17.30,1012.95,92.90,NaN,30.0,NaN,14.7,NaN,293.3,NaN,10.9,NaN,NaN, NaN,NaN,243.0,NaN,NaN,NaN,2,8.5,000719,   NaN,249.1,     NaN,      NaN,NaN,9.9,NaN,17.122, NaN,NaN,NaN, NaN, NaN
20040720,001231,614207,33.441667,-119.358000,NaN,17.174,33.489,43.329,  NaN,0.0, NaN, NaN, NaN, NaN,24.314,360.116,17.30,1012.95,93.10,NaN,29.0,NaN,15.0,NaN,290.0,NaN,10.8,NaN,NaN, NaN,NaN,244.0,NaN,NaN,NaN,2,8.6,000749,   NaN,249.6,     NaN,      NaN,NaN,10.0,NaN,17.178, NaN,NaN,NaN, NaN, NaN
20040720,001301,614237,33.441167,-119.359167,NaN,17.205,33.491,43.361,  NaN,0.0, NaN, NaN, NaN, NaN,24.308,360.695,17.30,1012.91,93.00,NaN,31.0,NaN,14.0,NaN,291.0,NaN,9.6,NaN,NaN, NaN,NaN,242.0,NaN,NaN,NaN,2,8.3,000779,   NaN,251.0,     NaN,      NaN,NaN,9.6,NaN,17.209, NaN,NaN,NaN, NaN, NaN
20040720,001331,614267,33.440667,-119.360500,NaN,17.233,33.492,43.390,  NaN,0.0, NaN, NaN, NaN, NaN,24.302,361.235,17.30,1012.95,93.40,NaN,26.0,NaN,12.7,NaN,292.9,NaN,9.0,NaN,NaN, NaN,NaN,244.0,NaN,NaN,NaN,2,8.7,000809,   NaN,250.4,     NaN,      NaN,NaN,10.2,NaN,17.238, NaN,NaN,NaN, NaN, NaN
20040720,001401,614297,33.440000,-119.361833,NaN,17.220,33.492,43.377,  NaN,0.0, NaN, NaN, NaN, NaN,24.305,360.932,17.30,1013.01,92.70,NaN,34.0,NaN,15.7,NaN,296.7,NaN,11.9,NaN,NaN, NaN,NaN,243.0,NaN,NaN,NaN,2,8.8,000839,   NaN,250.4,     NaN,      NaN,NaN,9.5,NaN,17.224, NaN,NaN,NaN, NaN, NaN
20040720,001431,614327,33.439500,-119.363000,NaN,17.187,33.493,43.347,  NaN,0.0, NaN, NaN, NaN, NaN,24.314,360.154,17.30,1012.95,92.90,NaN,33.0,NaN,14.2,NaN,290.4,NaN,10.9,NaN,NaN, NaN,NaN,243.0,NaN,NaN,NaN,2,8.4,000869,   NaN,250.4,     NaN,      NaN,NaN,9.5,NaN,17.192, NaN,NaN,NaN, NaN, NaN
20040720,001501,614357,33.439000,-119.364333,NaN,17.215,33.490,43.369,  NaN,0.0, NaN, NaN, NaN, NaN,24.305,361.007,17.30,1012.99,92.90,NaN,32.0,NaN,14.6,NaN,295.0,NaN,10.6,NaN,NaN, NaN,NaN,244.0,NaN,NaN,NaN,2,8.7,000899,   NaN,250.0,     NaN,      NaN,NaN,9.7,NaN,17.219, NaN,NaN,NaN, NaN, NaN
20040720,001531,614387,33.438500,-119.365667,NaN,17.220,33.491,43.375,  NaN,0.0, NaN, NaN, NaN, NaN,24.304,361.042,17.30,1013.03,93.00,NaN,35.0,NaN,15.7,NaN,294.9,NaN,12.5,NaN,NaN, NaN,NaN,243.0,NaN,NaN,NaN,2,8.9,000929,   NaN,250.3,     NaN,      NaN,NaN,10.4,NaN,17.224, NaN,NaN,NaN, NaN, NaN
20040720,001601,614417,33.438000,-119.367000,NaN,17.165,33.484,43.314,  NaN,0.0, NaN, NaN, NaN, NaN,24.312,360.308,17.30,1012.88,93.00,NaN,32.0,NaN,13.9,NaN,292.4,NaN,9.4,NaN,NaN, NaN,NaN,245.0,NaN,NaN,NaN,2,8.5,000959,   NaN,250.4,     NaN,      NaN,NaN,9.6,NaN,17.169, NaN,NaN,NaN, NaN, NaN
20040720,001631,614447,33.437500,-119.368167,NaN,17.212,33.484,43.360,  NaN,0.0, NaN, NaN, NaN, NaN,24.301,361.321,17.30,1012.94,93.00,NaN,27.0,NaN,15.1,NaN,293.2,NaN,12.1,NaN,NaN, NaN,NaN,244.0,NaN,NaN,NaN,2,8.6,000989,   NaN,250.2,     NaN,      NaN,NaN,9.9,NaN,17.216, NaN,NaN,NaN, NaN, NaN
20040720,001701,614477,33.436833,-119.369500,NaN,17.266,33.489,43.418,  NaN,0.0, NaN, NaN, NaN, NaN,24.292,362.209,17.30,1012.92,92.90,NaN,32.0,NaN,15.7,NaN,291.8,NaN,11.8,NaN,NaN, NaN,NaN,244.0,NaN,NaN,NaN,2,8.6,001019,   NaN,250.8,     NaN,      NaN,NaN,9.6,NaN,17.270, NaN,NaN,NaN, NaN, NaN
20040720,001731,614507,33.436333,-119.370833,NaN,17.271,33.493,43.427,  NaN,0.0, NaN, NaN, NaN, NaN,24.294,362.045,17.30,1012.78,92.90,NaN,29.0,NaN,14.8,NaN,293.7,NaN,12.4,NaN,NaN, NaN,NaN,243.0,NaN,NaN,NaN,2,8.9,001049,   NaN,248.8,     NaN,      NaN,NaN,10.1,NaN,17.275, NaN,NaN,NaN, NaN, NaN
20040720,001801,614537,33.435833,-119.372167,NaN,17.279,33.491,43.433,  NaN,0.0,0.568, NaN, NaN,18.700,24.291,362.340,17.30,1012.80,92.90,NaN,27.0,NaN,13.6,NaN,285.1,NaN,10.4,NaN,NaN,0.568,NaN,244.0,NaN,NaN,NaN,2,8.7,001079,   NaN,249.6,     NaN,      NaN,NaN,9.9,NaN,17.283,0.214,NaN,NaN, NaN, NaN
20040720,001831,614567,33.435333,-119.373500,NaN,17.283,33.493,43.438,  NaN,0.0, NaN, NaN, NaN, NaN,24.291,362.332,17.30,1012.91,92.90,NaN,36.0,NaN,15.0,NaN,295.3,NaN,11.7,NaN,NaN, NaN,NaN,244.0,NaN,NaN,NaN,2,8.9,001109,   NaN,248.6,     NaN,      NaN,NaN,10.0,NaN,17.287, NaN,NaN,NaN, NaN, NaN
20040720,001901,614597,33.434833,-119.374667,NaN,17.258,33.493,43.414,  NaN,0.0, NaN, NaN, NaN, NaN,24.297,361.761,17.30,1012.83,93.20,NaN,23.0,NaN,12.7,NaN,298.8,NaN,9.3,NaN,NaN, NaN,NaN,254.0,NaN,NaN,NaN,2,7.8,001139,   NaN,263.1,     NaN,      NaN,NaN,9.5,NaN,17.262, NaN,NaN,NaN, NaN, NaN
20040720,001931,614627,33.434667,-119.376000,NaN,17.286,33.488,43.436,  NaN,0.0, NaN, NaN, NaN, NaN,24.287,362.702,17.30,1012.97,92.90,NaN,29.0,NaN,14.6,NaN,293.7,NaN,10.3,NaN,NaN, NaN,NaN,256.0,NaN,NaN,NaN,2,7.7,001169,   NaN,260.7,     NaN,      NaN,NaN,8.4,NaN,17.290, NaN,NaN,NaN, NaN, NaN
20040720,002001,614657,33.434167,-119.377167,NaN,17.334,33.487,43.481,  NaN,0.0, NaN, NaN, NaN, NaN,24.274,363.912,17.30,1012.76,92.70,NaN,27.0,NaN,14.9,NaN,293.0,NaN,10.6,NaN,NaN, NaN,NaN,241.0,NaN,NaN,NaN,2,8.0,001199,   NaN,247.8,     NaN,      NaN,NaN,9.0,NaN,17.338, NaN,NaN,NaN, NaN, NaN
20040720,002031,614687,33.433667,-119.378333,NaN,17.347,33.490,43.497,  NaN,0.0, NaN, NaN, NaN, NaN,24.274,363.952,17.30,1012.79,92.70,NaN,28.0,NaN,15.5,NaN,290.9,NaN,11.7,NaN,NaN, NaN,NaN,245.0,NaN,NaN,NaN,2,8.1,001229,   NaN,254.9,     NaN,      NaN,NaN,9.0,NaN,17.351, NaN,NaN,NaN, NaN, NaN
20040720,002101,614717,33.433167,-119.379667,NaN,17.352,33.490,43.501,  NaN,0.0, NaN, NaN, NaN, NaN,24.272,364.119,17.30,1012.92,92.90,NaN,27.0,NaN,14.9,NaN,287.3,NaN,10.7,NaN,NaN, NaN,NaN,246.0,NaN,NaN,NaN,2,8.2,001259,   NaN,251.6,     NaN,      NaN,NaN,10.0,NaN,17.356, NaN,NaN,NaN, NaN, NaN
20040720,002131,614747,33.432667,-119.380833,NaN,17.358,33.489,43.506,  NaN,0.0, NaN, NaN, NaN, NaN,24.270,364.261,17.40,1012.81,92.90,NaN,31.0,NaN,14.8,NaN,292.3,NaN,11.1,NaN,NaN, NaN,NaN,243.0,NaN,NaN,NaN,2,8.0,001289,   NaN,251.6,     NaN,      NaN,NaN,8.7,NaN,17.362, NaN,NaN,NaN, NaN, NaN
20040720,002201,614777,33.432167,-119.382167,NaN,17.368,33.488,43.515,  NaN,0.0, NaN, NaN, NaN, NaN,24.267,364.595,17.40,1012.76,93.00,NaN,22.0,NaN,13.9,NaN,290.5,NaN,11.0,NaN,NaN, NaN,NaN,245.0,NaN,NaN,NaN,2,8.4,001319,   NaN,251.9,     NaN,      NaN,NaN,8.9,NaN,17.372, NaN,NaN,NaN, NaN, NaN
20040720,002231,614807,33.431667,-119.383333,NaN,17.347,33.489,43.495,  NaN,0.0, NaN, NaN, NaN, NaN,24.272,364.084,17.40,1012.89,93.00,NaN,24.0,NaN,14.4,NaN,290.1,NaN,10.1,NaN,NaN, NaN,NaN,244.0,NaN,NaN,NaN,2,8.4,001349,   NaN,252.2,     NaN,      NaN,NaN,9.1,NaN,17.351, NaN,NaN,NaN, NaN, NaN
20040720,002301,614837,33.431167,-119.384667,NaN,17.330,33.485,43.475,  NaN,0.0, NaN, NaN, NaN, NaN,24.274,363.961,17.30,1012.81,93.00,NaN,26.0,NaN,13.8,NaN,286.2,NaN,9.4,NaN,NaN, NaN,NaN,243.0,NaN,NaN,NaN,2,8.3,001379,   NaN,251.7,     NaN,      NaN,NaN,9.2,NaN,17.334, NaN,NaN,NaN, NaN, NaN
20040720,002331,614867,33.430667,-119.386000,NaN,17.327,33.483,43.470,  NaN,0.0, NaN, NaN, NaN, NaN,24.273,364.033,17.40,1012.89,93.10,NaN,34.0,NaN,14.8,NaN,290.2,NaN,10.5,NaN,NaN, NaN,NaN,244.0,NaN,NaN,NaN,2,8.6,001409,   NaN,252.1,     NaN,      NaN,NaN,9.5,NaN,17.331, NaN,NaN,NaN, NaN, NaN
20040720,002401,614897,33.430167,-119.387167,NaN,17.337,33.484,43.481,  NaN,0.0, NaN, NaN, NaN, NaN,24.271,364.168,17.30,1012.88,92.90,NaN,27.0,NaN,13.8,NaN,289.9,NaN,9.3,NaN,NaN, NaN,NaN,243.0,NaN,NaN,NaN,2,8.3,001439,   NaN,251.2,     NaN,      NaN,NaN,9.6,NaN,17.342, NaN,NaN,NaN, NaN, NaN
20040720,002431,614927,33.429667,-119.388500,NaN,17.350,33.484,43.492,  NaN,0.0, NaN, NaN, NaN, NaN,24.268,364.474,17.30,1012.84,92.90,NaN,31.0,NaN,15.1,NaN,299.7,NaN,11.4,NaN,NaN, NaN,NaN,244.0,NaN,NaN,NaN,2,8.7,001469,   NaN,251.7,     NaN,      NaN,NaN,9.6,NaN,17.354, NaN,NaN,NaN, NaN, NaN
20040720,002501,614957,33.429167,-119.389833,NaN,17.364,33.484,43.506,  NaN,0.0, NaN, NaN, NaN, NaN,24.265,364.823,17.30,1012.87,92.90,NaN,29.0,NaN,15.2,NaN,291.8,NaN,11.3,NaN,NaN, NaN,NaN,247.0,NaN,NaN,NaN,2,8.7,001499,   NaN,253.2,     NaN,      NaN,NaN,10.1,NaN,17.368, NaN,NaN,NaN, NaN, NaN
20040720,002531,614987,33.428667,-119.391000,NaN,17.397,33.481,43.534,  NaN,0.0, NaN, NaN, NaN, NaN,24.255,365.729,17.30,1012.92,93.00,NaN,27.0,NaN,12.9,NaN,290.6,NaN,10.0,NaN,NaN, NaN,NaN,243.0,NaN,NaN,NaN,2,8.5,001529,   NaN,250.7,     NaN,      NaN,NaN,9.4,NaN,17.401, NaN,NaN,NaN, NaN, NaN
20040720,002601,615017,33.428167,-119.392333,NaN,17.407,33.484,43.548,  NaN,0.0, NaN, NaN, NaN, NaN,24.255,365.775,17.30,1012.89,93.00,NaN,28.0,NaN,14.3,NaN,291.0,NaN,10.7,NaN,NaN, NaN,NaN,246.0,NaN,NaN,NaN,2,8.6,001559,   NaN,253.0,     NaN,      NaN,NaN,9.7,NaN,17.411, NaN,NaN,NaN, NaN, NaN
20040720,002631,615047,33.427667,-119.393667,NaN,17.400,33.482,43.538,  NaN,0.0, NaN, NaN, NaN, NaN,24.255,365.767,17.30,1012.88,93.00,NaN,32.0,NaN,14.7,NaN,296.7,NaN,10.1,NaN,NaN, NaN,NaN,243.0,NaN,NaN,NaN,2,8.6,001589,   NaN,251.2,     NaN,      NaN,NaN,9.3,NaN,17.404, NaN,NaN,NaN, NaN, NaN
20040720,002701,615077,33.427000,-119.395000,NaN,17.386,33.481,43.524,  NaN,0.0, NaN, NaN, NaN, NaN,24.257,365.529,17.30,1012.98,93.10,NaN,34.0,NaN,15.9,NaN,294.8,NaN,12.1,NaN,NaN, NaN,NaN,244.0,NaN,NaN,NaN,2,8.8,001619,   NaN,251.4,     NaN,      NaN,NaN,10.0,NaN,17.391, NaN,NaN,NaN, NaN, NaN
20040720,002731,615107,33.426500,-119.396167,NaN,17.392,33.481,43.529,  NaN,0.0, NaN, NaN, NaN, NaN,24.255,365.693,17.30,1013.06,93.00,NaN,36.0,NaN,15.6,NaN,295.5,NaN,12.5,NaN,NaN, NaN,NaN,242.0,NaN,NaN,NaN,2,8.5,001649,   NaN,251.5,     NaN,      NaN,NaN,9.2,NaN,17.396, NaN,NaN,NaN, NaN, NaN
20040720,002801,615137,33.426000,-119.397500,NaN,17.396,33.480,43.532,  NaN,0.0, NaN, NaN, NaN, NaN,24.254,365.818,17.30,1012.92,93.10,NaN,31.0,NaN,15.7,NaN,295.8,NaN,12.5,NaN,NaN, NaN,NaN,246.0,NaN,NaN,NaN,2,8.5,001679,   NaN,252.8,     NaN,      NaN,NaN,9.6,NaN,17.400, NaN,NaN,NaN, NaN, NaN
20040720,002831,615167,33.425500,-119.398833,NaN,17.404,33.477,43.536,  NaN,0.0, NaN, NaN, NaN, NaN,24.250,366.223,17.30,1012.80,93.20,NaN,31.0,NaN,14.0,NaN,296.3,NaN,10.8,NaN,NaN, NaN,NaN,245.0,NaN,NaN,NaN,2,8.8,001709,   NaN,251.5,     NaN,      NaN,NaN,9.8,NaN,17.408, NaN,NaN,NaN, NaN, NaN
20040720,002901,615197,33.425000,-119.400000,NaN,17.412,33.479,43.547,  NaN,0.0, NaN, NaN, NaN, NaN,24.250,366.229,17.30,1012.86,93.10,NaN,30.0,NaN,14.7,NaN,291.7,NaN,11.3,NaN,NaN, NaN,NaN,242.0,NaN,NaN,NaN,2,8.2,001739,   NaN,250.9,     NaN,      NaN,NaN,8.7,NaN,17.416, NaN,NaN,NaN, NaN, NaN
20040720,002931,615227,33.424500,-119.401333,NaN,17.425,33.477,43.557,  NaN,0.0, NaN, NaN, NaN, NaN,24.245,366.666,17.40,1012.90,93.00,NaN,27.0,NaN,15.1,NaN,291.3,NaN,11.7,NaN,NaN, NaN,NaN,245.0,NaN,NaN,NaN,2,8.2,001769,   NaN,250.9,     NaN,      NaN,NaN,9.0,NaN,17.429, NaN,NaN,NaN, NaN, NaN
20040720,003001,615257,33.424000,-119.402500,NaN,17.427,33.478,43.560,  NaN,0.0, NaN, NaN, NaN, NaN,24.245,366.663,17.30,1012.93,93.00,NaN,32.0,NaN,16.4,NaN,289.3,NaN,12.9,NaN,NaN, NaN,NaN,242.0,NaN,NaN,NaN,2,8.2,001799,   NaN,251.5,     NaN,      NaN,NaN,8.9,NaN,17.432, NaN,NaN,NaN, NaN, NaN
20040720,003031,615287,33.423500,-119.403667,NaN,17.422,33.479,43.555,  NaN,0.0, NaN, NaN, NaN, NaN,24.247,366.475,17.30,1012.74,93.00,NaN,28.0,NaN,15.7,NaN,294.7,NaN,12.2,NaN,NaN, NaN,NaN,246.0,NaN,NaN,NaN,2,8.0,001829,   NaN,253.5,     NaN,      NaN,NaN,8.3,NaN,17.426, NaN,NaN,NaN, NaN, NaN
20040720,003101,615317,33.423000,-119.405000,NaN,17.407,33.479,43.541,  NaN,0.0, NaN, NaN, NaN, NaN,24.250,366.171,17.30,1013.03,93.20,NaN,32.0,NaN,12.8,NaN,299.1,NaN,10.2,NaN,NaN, NaN,NaN,244.0,NaN,NaN,NaN,2,8.5,001859,   NaN,252.7,     NaN,      NaN,NaN,9.0,NaN,17.411, NaN,NaN,NaN, NaN, NaN
20040720,003131,615347,33.422500,-119.406167,NaN,17.340,33.476,43.474,  NaN,0.0, NaN, NaN, NaN, NaN,24.264,364.865,17.30,1013.04,93.20,NaN,27.0,NaN,13.5,NaN,295.2,NaN,10.5,NaN,NaN, NaN,NaN,243.0,NaN,NaN,NaN,2,8.1,001889,   NaN,253.0,     NaN,      NaN,NaN,8.4,NaN,17.345, NaN,NaN,NaN, NaN, NaN
20040720,003201,615377,33.422167,-119.407333,NaN,17.315,33.473,43.446,  NaN,0.0, NaN, NaN, NaN, NaN,24.268,364.497,17.40,1012.95,93.10,NaN,25.0,NaN,12.6,NaN,290.5,NaN,8.5,NaN,NaN, NaN,NaN,246.0,NaN,NaN,NaN,2,8.0,001919,   NaN,253.6,     NaN,      NaN,NaN,8.4,NaN,17.319, NaN,NaN,NaN, NaN, NaN
20040720,003231,615407,33.421667,-119.408667,NaN,17.156,33.472,43.292,  NaN,0.0, NaN, NaN, NaN, NaN,24.305,360.968,17.30,1012.88,93.00,NaN,30.0,NaN,15.7,NaN,290.0,NaN,11.3,NaN,NaN, NaN,NaN,244.0,NaN,NaN,NaN,2,8.5,001949,   NaN,250.2,     NaN,      NaN,NaN,9.0,NaN,17.160, NaN,NaN,NaN, NaN, NaN
20040720,003301,615437,33.421167,-119.409833,NaN,17.219,33.467,43.348,  NaN,0.0, NaN, NaN, NaN, NaN,24.286,362.762,17.30,1012.82,93.00,NaN,22.0,NaN,15.1,NaN,288.4,NaN,10.7,NaN,NaN, NaN,NaN,247.0,NaN,NaN,NaN,2,8.4,001979,   NaN,255.0,     NaN,      NaN,NaN,9.5,NaN,17.224, NaN,NaN,NaN, NaN, NaN
20040720,003331,615467,33.420667,-119.411167,NaN,17.288,33.470,43.417,  NaN,0.0, NaN, NaN, NaN, NaN,24.272,364.086,17.30,1012.76,93.00,NaN,29.0,NaN,15.4,NaN,294.9,NaN,12.7,NaN,NaN, NaN,NaN,248.0,NaN,NaN,NaN,2,8.3,002009,   NaN,252.3,     NaN,      NaN,NaN,9.1,NaN,17.292, NaN,NaN,NaN, NaN, NaN
20040720,003401,615497,33.420167,-119.412333,NaN,17.317,33.471,43.446,  NaN,0.0, NaN, NaN, NaN, NaN,24.266,364.712,17.30,1012.84,93.00,NaN,29.0,NaN,14.9,NaN,290.2,NaN,10.4,NaN,NaN, NaN,NaN,241.0,NaN,NaN,NaN,2,7.6,002039,   NaN,251.0,     NaN,      NaN,NaN,8.2,NaN,17.321, NaN,NaN,NaN, NaN, NaN
20040720,003431,615527,33.419667,-119.413500,NaN,17.316,33.472,43.445,  NaN,0.0, NaN, NaN, NaN, NaN,24.267,364.605,17.30,1012.83,93.10,NaN,27.0,NaN,15.7,NaN,283.9,NaN,11.2,NaN,NaN, NaN,NaN,243.0,NaN,NaN,NaN,2,7.9,002069,   NaN,254.1,     NaN,      NaN,NaN,8.5,NaN,17.320, NaN,NaN,NaN, NaN, NaN
20040720,003501,615557,33.419167,-119.414667,NaN,17.330,33.473,43.461,  NaN,0.0, NaN, NaN, NaN, NaN,24.265,364.820,17.30,1012.88,93.20,NaN,21.0,NaN,15.2,NaN,282.8,NaN,11.0,NaN,NaN, NaN,NaN,248.0,NaN,NaN,NaN,2,7.8,002099,   NaN,255.6,     NaN,      NaN,NaN,8.7,NaN,17.334, NaN,NaN,NaN, NaN, NaN
20040720,003531,615587,33.418667,-119.415833,NaN,17.304,33.475,43.438,  NaN,0.0, NaN, NaN, NaN, NaN,24.272,364.121,17.30,1012.80,92.90,NaN,27.0,NaN,15.2,NaN,288.3,NaN,11.8,NaN,NaN, NaN,NaN,245.0,NaN,NaN,NaN,2,8.0,002129,   NaN,251.4,     NaN,      NaN,NaN,8.8,NaN,17.308, NaN,NaN,NaN, NaN, NaN
20040720,003601,615617,33.418167,-119.417167,NaN,17.274,33.472,43.406,  NaN,0.0, NaN, NaN, NaN, NaN,24.277,363.627,17.30,1012.73,93.00,NaN,26.0,NaN,15.4,NaN,287.1,NaN,11.5,NaN,NaN, NaN,NaN,243.0,NaN,NaN,NaN,2,8.1,002159,   NaN,254.0,     NaN,      NaN,NaN,8.8,NaN,17.278, NaN,NaN,NaN, NaN, NaN
20040720,003631,615647,33.417833,-119.418333,NaN,17.248,33.474,43.382,  NaN,0.0, NaN, NaN, NaN, NaN,24.284,362.930,17.30,1012.87,93.10,NaN,23.0,NaN,13.9,NaN,289.1,NaN,11.2,NaN,NaN, NaN,NaN,245.0,NaN,NaN,NaN,2,8.1,002189,   NaN,253.7,     NaN,      NaN,NaN,8.6,NaN,17.252, NaN,NaN,NaN, NaN, NaN
20040720,003701,615677,33.417333,-119.419500,NaN,17.231,33.471,43.363,  NaN,0.0, NaN, NaN, NaN, NaN,24.287,362.720,17.30,1012.83,93.00,NaN,24.0,NaN,15.7,NaN,290.4,NaN,13.1,NaN,NaN, NaN,NaN,242.0,NaN,NaN,NaN,2,7.9,002219,   NaN,251.1,     NaN,      NaN,NaN,7.9,NaN,17.235, NaN,NaN,NaN, NaN, NaN
20040720,003731,615707,33.416833,-119.420667,NaN,17.172,33.473,43.309,  NaN,0.0, NaN, NaN, NaN, NaN,24.302,361.289,17.30,1012.75,93.10,NaN,24.0,NaN,15.1,NaN,288.3,NaN,10.6,NaN,NaN, NaN,NaN,244.0,NaN,NaN,NaN,2,7.9,002249,   NaN,254.5,     NaN,      NaN,NaN,8.9,NaN,17.176, NaN,NaN,NaN, NaN, NaN
20040720,003801,615737,33.416333,-119.421833,NaN,17.136,33.469,43.269,  NaN,0.0, NaN, NaN, NaN, NaN,24.308,360.721,17.30,1012.70,93.10,NaN,26.0,NaN,13.8,NaN,295.2,NaN,11.8,NaN,NaN, NaN,NaN,244.0,NaN,NaN,NaN,2,8.0,002279,   NaN,252.2,     NaN,      NaN,NaN,8.0,NaN,17.140, NaN,NaN,NaN, NaN, NaN
20040720,003831,615767,33.415833,-119.423000,NaN,17.049,33.475,43.193,  NaN,0.0, NaN, NaN, NaN, NaN,24.332,358.374,17.30,1012.81,93.00,NaN,22.0,NaN,13.8,NaN,279.3,NaN,11.0,NaN,NaN, NaN,NaN,243.0,NaN,NaN,NaN,2,7.8,002309,   NaN,252.1,     NaN,      NaN,NaN,8.1,NaN,17.053, NaN,NaN,NaN, NaN, NaN
20040720,003901,615797,33.415333,-119.424167,NaN,16.920,33.467,43.060,  NaN,0.0, NaN, NaN, NaN, NaN,24.357,356.025,17.30,1012.82,93.00,NaN,25.0,NaN,15.0,NaN,284.3,NaN,10.4,NaN,NaN, NaN,NaN,245.0,NaN,NaN,NaN,2,7.9,002339,   NaN,253.7,     NaN,      NaN,NaN,8.3,NaN,16.924, NaN,NaN,NaN, NaN, NaN
20040720,003931,615827,33.415000,-119.425333,NaN,16.856,33.460,42.990,  NaN,0.0, NaN, NaN, NaN, NaN,24.366,355.144,17.30,1012.85,93.10,NaN,20.0,NaN,15.2,NaN,278.1,NaN,10.4,NaN,NaN, NaN,NaN,245.0,NaN,NaN,NaN,2,8.0,002369,   NaN,253.4,     NaN,      NaN,NaN,8.9,NaN,16.860, NaN,NaN,NaN, NaN, NaN
20040720,004001,615857,33.414500,-119.426667,NaN,16.795,33.461,42.934,  NaN,0.0, NaN, NaN, NaN, NaN,24.381,353.693,17.30,1012.76,93.00,NaN,18.0,NaN,15.0,NaN,285.2,NaN,10.6,NaN,NaN, NaN,NaN,245.0,NaN,NaN,NaN,2,8.2,002399,   NaN,251.9,     NaN,      NaN,NaN,8.8,NaN,16.799, NaN,NaN,NaN, NaN, NaN